Погода в Чиндянове

Россия / Республика Мордовия     54°27′51″N   46°23′37″E
темп.,
°C
ветер,
м/с
пор.,
м/с
влажн.,
%
обл.,
%
осадки,
мм/ч
давл.,
гПа
погр.,
м
10 мая, пн
пн1000:00+12с2492100 0.1 101295
03:00+11юв1195100 0.8 101415
06:00+13ююв1288100 0.0 101578
09:00+15ссз348499 0.0 1016182
12:00+19ссв6764100 0.0 10181005
15:00+22св5658100 0.1 10181335
18:00+17ссв41077100 0.9 1018218
21:00+14с61392100 2.0 1020340
11 мая, вт
вт1100:00+13ссв5129598 0.0 1021344
03:00+14св5119198 0.0 1022333
06:00+14ссв4890100 0.0 1022217
09:00+19в4863100 0.0 1024597
12:00+21вюв4757100 0.0 10241026
15:00+22в5854100 0.0 10251544
18:00+16зюз4583100 0.4 1026216
21:00+13юз228871 0.4 102716
12 мая, ср
ср1200:00+12с229023 0.0 102713
03:00+12св349151 0.0 102653
06:00+14всв31079100 0.0 1026295
09:00+19вюв61063100 0.0 1026996
12:00+17юв61263100 0.0 1026549
15:00+17вюв6116346 0.0 1026512
18:00+18юв4106611 0.0 1025384
21:00+15вюв397090 0.0 1026205
13 мая, чт
чт1300:00+13в227795 0.0 102516
03:00+12в337770 0.0 102549
06:00+14в3127495 0.0 1025353
09:00+19вюв71258100 0.0 1024708
12:00+15вюв51388100 1.1 1024504
15:00+18вюв6137391 1.2 1023759
18:00+18юв51377100 0.0 1022586
21:00+15вюв4138114 0.0 1021274
14 мая, пт
пт1400:00+13юв37865 0.1 1021114
03:00+12юв338358 0.1 102145
06:00+14ююв3880100 0.4 1021247
09:00+18ююв4666100 0.4 1021423
12:00+23ю5859100 0.0 10201142
15:00+24ююз475765 0.0 10201437
18:00+22ю3667100 0.0 1020117
21:00+17ююв337197 0.0 102042